Time,TemperatureF,DewpointF,PressureIn,WindDirection,WindDirectionDegrees,WindSpeedMPH,WindSpeedGustMPH,Humidity,HourlyPrecipIn,Conditions,Clouds,dailyrainin,SolarRadiationWatts/m^2,SoftwareType,DateUTC
2013-08-04 00:03:00,81.0,74.0,-100.00,East,86,2.0,4.0,79,0.00,,,-99.99,0.000000,,2013-08-04 04:03:00,
2013-08-04 00:12:00,81.0,74.0,-100.00,East,86,2.0,4.0,79,0.00,,,-99.99,0.000000,,2013-08-04 04:12:00,
2013-08-04 00:22:00,81.0,74.0,-100.00,East,86,2.0,4.0,79,0.00,,,-99.99,0.000000,,2013-08-04 04:22:00,
2013-08-04 00:32:00,81.0,74.0,-100.00,East,86,2.0,4.0,79,0.00,,,-99.99,0.000000,,2013-08-04 04:32:00,
2013-08-04 01:02:00,83.0,73.0,-100.00,ENE,71,3.0,5.0,73,0.00,,,0.00,0.000000,,2013-08-04 05:02:00,
2013-08-04 01:12:00,83.0,73.0,-100.00,ENE,71,3.0,5.0,73,0.00,,,0.00,0.000000,,2013-08-04 05:12:00,
2013-08-04 01:22:00,83.0,73.0,-100.00,ENE,71,3.0,5.0,73,0.00,,,0.00,0.000000,,2013-08-04 05:22:00,
2013-08-04 01:32:00,83.0,73.0,-100.00,ENE,71,3.0,5.0,73,0.00,,,0.00,0.000000,,2013-08-04 05:32:00,
2013-08-04 02:02:00,81.0,73.0,-100.00,South,170,2.0,5.0,78,0.00,,,0.00,0.000000,,2013-08-04 06:02:00,
2013-08-04 02:12:00,81.0,73.0,-100.00,South,170,2.0,5.0,78,0.00,,,0.00,0.000000,,2013-08-04 06:12:00,
2013-08-04 02:22:00,81.0,73.0,-100.00,South,170,2.0,5.0,78,0.00,,,0.00,0.000000,,2013-08-04 06:22:00,
2013-08-04 02:32:00,81.0,73.0,-100.00,South,170,2.0,5.0,78,0.00,,,0.00,0.000000,,2013-08-04 06:32:00,
2013-08-04 03:02:00,77.0,73.0,-100.00,South,178,1.0,2.0,87,0.00,,,0.00,0.000000,,2013-08-04 07:02:00,
2013-08-04 03:12:00,77.0,73.0,-100.00,South,178,1.0,2.0,87,0.00,,,0.00,0.000000,,2013-08-04 07:12:00,
2013-08-04 03:22:00,77.0,73.0,-100.00,South,178,1.0,2.0,87,0.00,,,0.00,0.000000,,2013-08-04 07:22:00,
2013-08-04 03:32:00,77.0,73.0,-100.00,South,178,1.0,2.0,87,0.00,,,0.00,0.000000,,2013-08-04 07:32:00,
2013-08-04 04:02:00,76.0,73.0,-100.00,SSE,167,2.0,2.0,90,0.00,,,0.00,0.000000,,2013-08-04 08:02:00,
2013-08-04 04:12:00,76.0,73.0,-100.00,SSE,167,2.0,2.0,90,0.00,,,0.00,0.000000,,2013-08-04 08:12:00,
2013-08-04 04:23:00,76.0,73.0,-100.00,SSE,167,2.0,2.0,90,0.00,,,0.00,0.000000,,2013-08-04 08:23:00,
2013-08-04 04:32:00,76.0,73.0,-100.00,SSE,167,2.0,2.0,90,0.00,,,0.00,0.000000,,2013-08-04 08:32:00,
2013-08-04 08:02:00,75.0,73.0,-100.00,SW,219,2.0,2.0,94,-99.99,,,0.00,16.000000,,2013-08-04 12:02:00,
2013-08-04 09:02:00,81.0,79.0,-100.00,WSW,247,1.0,2.0,93,-99.99,,,0.00,76.000000,,2013-08-04 13:02:00,
2013-08-04 09:12:00,81.0,79.0,-100.00,WSW,247,1.0,2.0,93,-99.99,,,0.00,76.000000,,2013-08-04 13:12:00,
2013-08-04 09:22:00,81.0,79.0,-100.00,WSW,247,1.0,2.0,93,-99.99,,,0.00,76.000000,,2013-08-04 13:22:00,
2013-08-04 09:32:00,81.0,79.0,-100.00,WSW,247,1.0,2.0,93,-99.99,,,0.00,76.000000,,2013-08-04 13:32:00,
2013-08-04 10:02:00,86.0,76.0,-100.00,South,191,2.0,3.0,72,0.00,,,0.00,203.000000,,2013-08-04 14:02:00,
2013-08-04 10:12:00,86.0,76.0,-100.00,South,191,2.0,3.0,72,0.00,,,0.00,203.000000,,2013-08-04 14:12:00,
2013-08-04 10:22:00,86.0,76.0,-100.00,South,191,2.0,3.0,72,0.00,,,0.00,203.000000,,2013-08-04 14:22:00,
2013-08-04 10:32:00,86.0,76.0,-100.00,South,191,2.0,3.0,72,0.00,,,0.00,203.000000,,2013-08-04 14:32:00,
2013-08-04 11:02:00,87.0,76.0,-100.00,East,82,2.0,5.0,70,0.00,,,0.00,239.000000,,2013-08-04 15:02:00,
2013-08-04 11:12:00,87.0,76.0,-100.00,East,82,2.0,5.0,70,0.00,,,0.00,239.000000,,2013-08-04 15:12:00,
2013-08-04 11:22:00,87.0,76.0,-100.00,East,82,2.0,5.0,70,0.00,,,0.00,239.000000,,2013-08-04 15:22:00,
2013-08-04 11:32:00,87.0,76.0,-100.00,East,82,2.0,5.0,70,0.00,,,0.00,239.000000,,2013-08-04 15:32:00,
2013-08-04 12:02:00,88.0,75.0,-100.00,ENE,76,3.0,5.0,66,0.00,,,0.00,348.000000,,2013-08-04 16:02:00,
2013-08-04 12:12:00,88.0,75.0,-100.00,ENE,76,3.0,5.0,66,0.00,,,0.00,348.000000,,2013-08-04 16:12:00,
2013-08-04 12:22:00,88.0,75.0,-100.00,ENE,76,3.0,5.0,66,0.00,,,0.00,348.000000,,2013-08-04 16:22:00,
2013-08-04 12:33:00,88.0,75.0,-100.00,ENE,76,3.0,5.0,66,0.00,,,0.00,348.000000,,2013-08-04 16:33:00,
2013-08-04 13:02:00,89.0,76.0,-100.00,NE,39,3.0,7.0,66,0.00,,,0.00,386.000000,,2013-08-04 17:02:00,
2013-08-04 13:12:00,89.0,76.0,-100.00,NE,39,3.0,7.0,66,0.00,,,0.00,386.000000,,2013-08-04 17:12:00,
2013-08-04 13:22:00,89.0,76.0,-100.00,NE,39,3.0,7.0,66,0.00,,,0.00,386.000000,,2013-08-04 17:22:00,
2013-08-04 13:32:00,89.0,76.0,-100.00,NE,39,3.0,7.0,66,0.00,,,0.00,386.000000,,2013-08-04 17:32:00,
2013-08-04 14:02:00,90.0,76.0,-100.00,NE,43,4.0,7.0,64,0.00,,,0.00,646.000000,,2013-08-04 18:02:00,
2013-08-04 14:12:00,90.0,76.0,-100.00,NE,43,4.0,7.0,64,0.00,,,0.00,646.000000,,2013-08-04 18:12:00,
2013-08-04 14:23:00,90.0,76.0,-100.00,NE,43,4.0,7.0,64,0.00,,,0.00,646.000000,,2013-08-04 18:23:00,
2013-08-04 14:33:00,90.0,76.0,-100.00,NE,43,4.0,7.0,64,0.00,,,0.00,646.000000,,2013-08-04 18:33:00,
2013-08-04 15:02:00,91.0,76.0,-100.00,NE,54,5.0,8.0,62,0.00,,,0.00,691.000000,,2013-08-04 19:02:00,
2013-08-04 15:12:00,91.0,76.0,-100.00,NE,54,5.0,8.0,62,0.00,,,0.00,691.000000,,2013-08-04 19:12:00,
2013-08-04 15:22:00,91.0,76.0,-100.00,NE,54,5.0,8.0,62,0.00,,,0.00,691.000000,,2013-08-04 19:22:00,
2013-08-04 15:32:00,91.0,76.0,-100.00,NE,54,5.0,8.0,62,0.00,,,0.00,691.000000,,2013-08-04 19:32:00,
2013-08-04 16:02:00,89.0,75.0,-100.00,NNE,27,3.0,6.0,64,0.00,,,0.00,348.000000,,2013-08-04 20:02:00,
2013-08-04 16:12:00,89.0,75.0,-100.00,NNE,27,3.0,6.0,64,0.00,,,0.00,348.000000,,2013-08-04 20:12:00,
2013-08-04 16:22:00,89.0,75.0,-100.00,NNE,27,3.0,6.0,64,0.00,,,0.00,348.000000,,2013-08-04 20:22:00,
2013-08-04 16:32:00,89.0,75.0,-100.00,NNE,27,3.0,6.0,64,0.00,,,0.00,348.000000,,2013-08-04 20:32:00,
2013-08-04 17:02:00,91.0,75.0,-100.00,North,8,5.0,9.0,60,0.00,,,0.00,527.000000,,2013-08-04 21:02:00,
2013-08-04 17:12:00,91.0,75.0,-100.00,North,8,5.0,9.0,60,0.00,,,0.00,527.000000,,2013-08-04 21:12:00,
2013-08-04 17:22:00,91.0,75.0,-100.00,North,8,5.0,9.0,60,0.00,,,0.00,527.000000,,2013-08-04 21:22:00,
2013-08-04 17:32:00,91.0,75.0,-100.00,North,8,5.0,9.0,60,0.00,,,0.00,527.000000,,2013-08-04 21:32:00,
2013-08-04 18:02:00,89.0,75.0,-100.00,NNW,341,4.0,8.0,63,0.00,,,0.00,339.000000,,2013-08-04 22:02:00,
2013-08-04 18:12:00,89.0,75.0,-100.00,NNW,341,4.0,8.0,63,0.00,,,0.00,339.000000,,2013-08-04 22:12:00,
2013-08-04 18:22:00,89.0,75.0,-100.00,NNW,341,4.0,8.0,63,0.00,,,0.00,339.000000,,2013-08-04 22:22:00,
2013-08-04 18:32:00,89.0,75.0,-100.00,NNW,341,4.0,8.0,63,0.00,,,0.00,339.000000,,2013-08-04 22:32:00,
2013-08-04 19:02:00,89.0,74.0,-100.00,North,350,5.0,8.0,62,0.00,,,0.00,221.000000,,2013-08-04 23:02:00,
2013-08-04 19:12:00,89.0,74.0,-100.00,North,350,5.0,8.0,62,0.00,,,0.00,221.000000,,2013-08-04 23:12:00,
2013-08-04 19:23:00,89.0,74.0,-100.00,North,350,5.0,8.0,62,0.00,,,0.00,221.000000,,2013-08-04 23:23:00,
2013-08-04 19:32:00,89.0,74.0,-100.00,North,350,5.0,8.0,62,0.00,,,0.00,221.000000,,2013-08-04 23:32:00,
2013-08-04 20:02:00,86.0,72.0,-100.00,NNW,348,4.0,9.0,64,0.00,,,0.00,93.000000,,2013-08-05 00:02:00,
2013-08-04 20:12:00,86.0,72.0,-100.00,NNW,348,4.0,9.0,64,0.00,,,0.00,93.000000,,2013-08-05 00:12:00,
2013-08-04 20:22:00,86.0,72.0,-100.00,NNW,348,4.0,9.0,64,0.00,,,0.00,93.000000,,2013-08-05 00:22:00,
2013-08-04 20:33:00,86.0,72.0,-100.00,NNW,348,4.0,9.0,64,0.00,,,0.00,93.000000,,2013-08-05 00:33:00,
2013-08-04 21:02:00,84.0,72.0,-100.00,North,353,4.0,6.0,68,0.00,,,0.00,5.000000,,2013-08-05 01:02:00,
2013-08-04 21:12:00,84.0,72.0,-100.00,North,353,4.0,6.0,68,0.00,,,0.00,5.000000,,2013-08-05 01:12:00,
2013-08-04 21:22:00,84.0,72.0,-100.00,North,353,4.0,6.0,68,0.00,,,0.00,5.000000,,2013-08-05 01:22:00,
2013-08-04 21:33:00,84.0,72.0,-100.00,North,353,4.0,6.0,68,0.00,,,0.00,5.000000,,2013-08-05 01:33:00,
2013-08-04 22:02:00,82.0,74.0,-100.00,NNW,335,3.0,7.0,76,0.00,,,0.00,0.000000,,2013-08-05 02:02:00,
2013-08-04 22:12:00,82.0,74.0,-100.00,NNW,335,3.0,7.0,76,0.00,,,0.00,0.000000,,2013-08-05 02:12:00,
2013-08-04 22:22:00,82.0,74.0,-100.00,NNW,335,3.0,7.0,76,0.00,,,0.00,0.000000,,2013-08-05 02:22:00,
2013-08-04 22:33:00,82.0,74.0,-100.00,NNW,335,3.0,7.0,76,0.00,,,0.00,0.000000,,2013-08-05 02:33:00,
2013-08-04 23:02:00,80.0,73.0,-100.00,NW,326,2.0,4.0,80,0.00,,,0.00,0.000000,,2013-08-05 03:02:00,
2013-08-04 23:12:00,80.0,73.0,-100.00,NW,326,2.0,4.0,80,0.00,,,0.00,0.000000,,2013-08-05 03:12:00,
2013-08-04 23:22:00,80.0,73.0,-100.00,NW,326,2.0,4.0,80,0.00,,,0.00,0.000000,,2013-08-05 03:22:00,
2013-08-04 23:32:00,80.0,73.0,-100.00,NW,326,2.0,4.0,80,0.00,,,0.00,0.000000,,2013-08-05 03:32:00,